501  
ASUS44 KOUN 180510  
RWROK  
 
WEATHER ROUNDUP FOR OKLAHOMA  
NATIONAL WEATHER SERVICE NORMAN OK  
1200 AM CDT MON JUN 18 2018  
 
NOTE: "FAIR" INDICATES FEW OR NO CLOUDS BELOW 12,000 FEET WITH NO  
SIGNIFICANT WEATHER AND/OR S TO VISIBILITY
.  
 
OKZ001>007-009>012-014-015-017-180600-  
NORTHWEST OKLAHOMA AND THE PANHANDLE  
 
CITY SKY/WX TMP DP RH WIND PRES REMARKS
 
GAGE CLEAR 73 67 81 SE6 29.95S  
GUYMON CLEAR 72 66 81 S12 29.94R  
ENID/WOODRING CLEAR 79 70 73 SE13 29.93F  

 
 
OKZ016-021>023-033>039-044-045-180600-  
SOUTHWEST OKLAHOMA  
 
CITY SKY/WX TMP DP RH WIND PRES REMARKS
 
LAWTON/REGL CLEAR 84 69 60 SE13 29.93S  
LAWTON/FT SILL CLEAR 82 72 70 SE10 29.92F  
FREDERICK CLEAR 84 67 56 SE14 29.90S  
CLINTON CLEAR 81 65 58 SE16 29.96R  
HOBART CLEAR 83 66 56 SE18 29.94S  
ALTUS AFB CLEAR 84 64 51 SE15G22 29.92S  

 
 
OKZ018>020-024>031-180600-  
CENTRAL OKLAHOMA  
 
CITY SKY/WX TMP DP RH WIND PRES REMARKS
 
OKLAHOMA CITY PTCLDY 80 68 66 SE16 29.95F  
OKC/WILEY POST CLEAR 83 69 62 SE15G22 29.95F  
OKC/TINKER AFB CLEAR 79 69 70 SE8 29.96F  
STILLWATER CLEAR 80 68 66 S10 29.95F  
GUTHRIE CLEAR 79 69 71 S8 29.95F  

 
 
OKZ008-013-054>072-180600-  
NORTHEAST OKLAHOMA  
 
CITY SKY/WX TMP DP RH WIND PRES REMARKS
 
TULSA CLEAR 85 70 60 S9 29.95F  
TULSA/JONES CLEAR 84 68 58 S6 29.96F  
PONCA CITY CLEAR 83 68 60 S13 29.95S  
BARTLESVILLE CLEAR 73 71 93 CALM 29.97F  
MUSKOGEE CLEAR 78 71 79 SE7 29.99S  

 
 
OKZ032-040>043-046>053-073>077-180600-  
SOUTH CENTRAL/SOUTHEAST OKLAHOMA  
 
CITY SKY/WX TMP DP RH WIND PRES REMARKS
 
ARDMORE/DWNTWN CLEAR 81 68 65 SE5 29.97S  
MCALESTER CLEAR 83 69 62 VRB7 30.00R  

 
 
 
 
CLICK HERE TO GO TO PREVIOUS BULLETINS.

The Nexlab OK Page Main Text Page